Regional Weather Roundup
Issued by NWS Green Bay, WI

Home | Current Version | Previous Version | Graphics & Text | Print | Product List | Glossary Off
Versions: 1 2 3 4 5 6 7 8 9 10 11 12 13 14 15 16 17 18 19 20 21 22 23 24 25 26 27 28 29 30 31 32 33 34 35 36 37 38 39 40 41 42 43 44 45 46 47 48 49 50

000
ASUS43 KGRB 271400
RWRGRB

NORTH-CENTRAL AND NORTHEAST WISCONSIN REGIONAL WEATHER ROUNDUP
NATIONAL WEATHER SERVICE GREEN BAY WI
900 AM CDT FRI MAY 27 2016

WIZ005-009-010>012-018-019-271500-
NORTH CENTRAL WISCONSIN

CITY           SKY/WX    TMP DP  RH WIND       PRES   REMARKS
IRONWOOD       CLOUDY    59  57  94 CALM      29.87R
MANITOWISH WTR NOT AVBL
ARBOR VITAE    NOT AVBL
EAGLE RIVER    NOT AVBL
LAND O LAKES   NOT AVBL
RHINELANDER    CLOUDY    68  56  65 SE5       29.92R
PHILLIPS       CLOUDY    60  57  91 CALM      29.89R
ANTIGO         NOT AVBL
TOMAHAWK       NOT AVBL
MERRILL        CLOUDY   N/A N/A N/A CALM      29.91R
$$

WIZ013-073-271500-
NORTHEAST WISCONSIN

CITY           SKY/WX    TMP DP  RH WIND       PRES   REMARKS
IRON MOUNTAIN  SUNNY     71  59  65 CALM      29.88S
MARINETTE      SUNNY     64  57  77 E6        29.90R
$$

WIZ017-030-035>037-045-271500-
CENTRAL WISCONSIN

CITY           SKY/WX    TMP DP  RH WIND       PRES   REMARKS
MEDFORD        NOT AVBL
WAUSAU         CLOUDY    66  59  78 CALM      29.87S
MOSINEE        CLOUDY    64  61  88 NW7       29.89S
MARSHFIELD     CLOUDY    66  58  75 NE3       29.86F
WISC RAPIDS    CLOUDY    66  60  81 E6        29.86F
STEVENS POINT  NOT AVBL
WAUPACA        CLOUDY    70  64  81 CALM      29.87R
SHAWANO        CLOUDY    69  62  78 CALM      29.88S
CLINTONVILLE   NOT AVBL
WAUTOMA        CLOUDY    66  62  87 E3        29.86
$$

WIZ038-039-048-051-271500-
FOX VALLEY

CITY           SKY/WX    TMP DP  RH WIND       PRES   REMARKS
NWS GREEN BAY  CLOUDY    74  62  66 CALM      29.87S
APPLETON       PTSUNNY   72  57  60 E7        29.85F
OSHKOSH        CLOUDY    70  60  70 NE5       29.85S
FOND DU LAC    CLOUDY    72  63  73 CALM      29.87R
$$

WIZ022-050-052-271500-
EAST CENTRAL WISCONSIN

CITY           SKY/WX    TMP DP  RH WIND       PRES   REMARKS
EPHRAIM        FAIR      69  59  71 SE6       29.88F
STURGEON BAY   NOT AVBL
MANITOWOC      NOT AVBL
SHEBOYGAN      CLOUDY    63  55  75 SE7       29.89R
$$

LMZ563-521-522-541>543-271500-
LAKESHORE

STATION/POSITION TIME  TEMP    WIND        PRES    VSBY  WAVE
                       AIR SEA DIR/SP/G                  HT/PER
                 (UTC) (F)     (DEG/KT/KT) (MB)    (MI)  (FT/S)
SHEBOYGAN LKSHOR 1300   52      80/  5/  7 1012.0R
KEWAUNEE LKSHORE 1300   53      40/  3/  4 1011.6S
NORTHPORT PIER   1300   53     100/  4/  6 1012.9
N MID LAKE BUOY  1250   46 45  320/  6/  6 1013.1R         1/ 4
SISTER BAY LKSHO 1305             CALM       N/A
CHAMBERS ISLAND  1300   61      30/  3/  5 1012.2
MENOMINEE LKSHOR 1300   57      30/  7/  9 1011.1S
$$




USA.gov is the U.S. government's official web portal to all federal, state and local government web resources and services.